Meridian, MS

4:26 AM CDT on September 24, 2017 (GMT -0500)
Key

Weather History for KMEI - October, 2011

Change the Weather History Date:

Saturday, October 22, 2011

  Actual Average Record
Temperature  
Mean Temperature 53 °F 62 °F  
Max Temperature 73 °F 75 °F 90 °F (1963)
Min Temperature 33 °F 49 °F 29 °F (1987)
Degree Days  
Heating Degree Days 12 5  
Month to date heating degree days 83 62  
Since 1 July heating degree days 83 69  
Cooling Degree Days 0 2  
Month to date cooling degree days 30 76  
Year to date cooling degree days 2214 1999  
Growing Degree Days 2 (Base 50)    
Moisture  
Dew Point 38 °F    
Average Humidity 65    
Maximum Humidity 100    
Minimum Humidity 29    
Precipitation  
Precipitation 0.00 in 0.13 in 1.67 in (2007)
Month to date precipitation 0.33 2.61  
Year to date precipitation 43.36 45.00  
Sea Level Pressure  
Sea Level Pressure 30.15 in    
Wind  
Wind Speed 2 mph (NNE)    
Max Wind Speed 14 mph    
Max Gust Speed 20 mph    
Visibility 10 miles    
Events      
T = Trace of Precipitation, MM = Missing Value Source: NWS Daily Summary

Daily Weather History Graph

Daily Weather History Graph

Search for Another Location

Airport or City:

Trip Planner

Search our weather history database for the weather conditions in past years. The results will help you decide how hot, cold, wet, or windy it might be!

Date:

Astronomy

Oct. 22, 2011 Rise Set
Actual Time 7:03 AM CDT 6:14 PM CDT
Civil Twilight 6:38 AM CDT 6:39 PM CDT
Nautical Twilight 6:10 AM CDT 7:08 PM CDT
Astronomical Twilight 5:41 AM CDT 7:36 PM CDT
Moon 2:17 AM CDT (10/22) 3:18 PM CDT (10/22)
Length of Visible Light 12h 00m
Length of Day
11h 10m
Waning Crescent, 23% of the Moon is Illuminated
Oct 22
Waning Crescent
Oct 26
New
Nov 2
First Quarter
Nov 10
Full
Nov 18
Last Quarter

Hourly Weather History & Observations

Time (CDT) Temp. Dew Point Humidity Pressure Visibility Wind Dir Wind Speed Gust Speed Precip Events Conditions
12:58 AM 37.0 °F 36.0 °F 96% 30.17 in 10.0 mi Calm Calm - N/A   Clear
1:58 AM 37.0 °F 35.1 °F 93% 30.17 in 10.0 mi Calm Calm - N/A   Clear
2:58 AM 35.1 °F 34.0 °F 96% 30.17 in 10.0 mi Calm Calm - N/A   Clear
3:58 AM 35.1 °F 34.0 °F 96% 30.17 in 10.0 mi Calm Calm - N/A   Clear
4:58 AM 34.0 °F 33.1 °F 96% 30.19 in 10.0 mi Calm Calm - N/A   Clear
5:58 AM 34.0 °F 32.0 °F 92% 30.20 in 10.0 mi Calm Calm - N/A   Clear
6:58 AM 33.1 °F 32.0 °F 96% 30.21 in 10.0 mi Calm Calm - N/A   Clear
7:58 AM 37.0 °F 34.0 °F 89% 30.22 in 10.0 mi Calm Calm - N/A   Clear
8:58 AM 46.0 °F 41.0 °F 83% 30.24 in 10.0 mi Calm Calm - N/A   Clear
9:58 AM 55.9 °F 42.1 °F 60% 30.23 in 10.0 mi Calm Calm - N/A   Clear
10:58 AM 63.0 °F 37.0 °F 38% 30.21 in 10.0 mi NE 4.6 mph - N/A   Clear
11:58 AM 66.9 °F 35.1 °F 31% 30.18 in 10.0 mi NE 6.9 mph - N/A   Clear
12:58 PM 68.0 °F 35.1 °F 30% 30.15 in 10.0 mi NNE 8.1 mph - N/A   Clear
1:58 PM 71.1 °F 37.0 °F 29% 30.12 in 10.0 mi North 8.1 mph - N/A   Clear
2:58 PM 72.0 °F 37.0 °F 28% 30.11 in 10.0 mi North 8.1 mph - N/A   Clear
3:58 PM 72.0 °F 37.0 °F 28% 30.10 in 10.0 mi NNE 8.1 mph - N/A   Clear
4:58 PM 70.0 °F 37.9 °F 31% 30.10 in 10.0 mi NNE 8.1 mph - N/A   Clear
5:58 PM 63.0 °F 42.1 °F 46% 30.10 in 10.0 mi NNW 4.6 mph - N/A   Clear
6:58 PM 54.0 °F 48.0 °F 80% 30.11 in 10.0 mi Calm Calm - N/A   Clear
7:58 PM 50.0 °F 46.0 °F 86% 30.12 in 10.0 mi Calm Calm - N/A   Clear
8:58 PM 46.9 °F 44.1 °F 90% 30.12 in 10.0 mi Calm Calm - N/A   Clear
9:58 PM 46.0 °F 44.1 °F 93% 30.11 in 10.0 mi Calm Calm - N/A   Clear
10:58 PM 44.1 °F 42.1 °F 93% 30.10 in 10.0 mi Calm Calm - N/A   Clear
11:58 PM 42.1 °F 41.0 °F 96% 30.10 in 10.0 mi Calm Calm - N/A   Clear